ECMWFFLT2_500_spd_057.txt.gz
Wind_Speed
26 26 24 23 23 21 20 19 20 21 21 23 22 23 27 28 26 27 31 37 42 41 38 35 30 25 22 20 18 19 18 18 18 17 17 17 18 18 18 18 17 17 17 18 18 18 18 18 18 19 18 18 18 20 21 20 19 19 20 17 14 15
26 26 24 24 21 20 20 19 20 20 19 20 20 21 23 25 25 25 29 36 40 36 31 30 27 22 20 18 19 19 18 18 18 18 18 18 19 19 19 19 18 18 18 18 19 20 19 19 19 19 19 19 19 20 20 21 20 20 21 18 16 17
23 23 23 23 23 21 21 21 21 20 19 18 17 16 16 17 18 20 25 32 35 30 26 25 23 20 19 19 19 19 18 18 18 18 18 19 20 20 20 19 19 19 19 19 20 20 20 20 20 20 20 19 19 20 20 21 21 22 22 18 17 18
21 21 22 22 24 24 23 23 21 20 19 16 13 12 15 14 13 16 24 29 29 27 26 24 22 20 19 20 19 18 18 18 18 18 18 19 19 19 19 19 18 18 19 20 20 20 21 21 22 21 20 19 19 19 20 21 22 23 22 18 18 18
19 20 21 20 21 22 23 23 22 22 20 18 14 13 14 14 13 16 22 26 26 25 21 21 21 19 19 19 18 18 18 18 18 18 18 18 18 18 18 17 17 17 18 18 18 19 20 22 22 22 21 20 19 19 20 22 22 23 22 19 20 19
18 20 21 20 21 20 21 23 23 22 21 20 18 16 16 15 16 17 21 25 25 21 16 15 17 17 18 17 17 17 17 16 16 16 16 16 17 17 17 17 17 17 17 16 17 18 20 21 22 22 23 22 20 20 21 22 22 23 22 21 21 21
20 21 21 20 21 20 20 21 21 20 20 19 18 17 16 16 16 15 18 22 22 20 18 17 18 17 17 16 16 16 16 16 15 14 15 16 17 17 16 16 16 16 17 16 17 18 20 21 22 22 23 23 22 21 22 22 22 24 23 22 22 21
20 20 20 19 19 19 19 19 19 18 16 15 15 15 15 17 17 14 16 20 21 21 21 21 19 17 16 15 16 16 15 15 13 13 15 15 16 16 15 16 16 16 17 18 18 19 20 21 22 22 22 22 22 21 22 22 22 24 23 22 22 21
19 18 19 19 20 19 17 18 17 14 13 13 14 15 16 18 17 15 17 20 22 21 21 20 19 18 17 15 15 15 14 13 13 14 16 16 16 16 17 17 17 17 18 17 18 18 19 20 21 21 21 21 21 21 22 22 23 24 24 23 22 22
19 19 20 21 19 17 15 15 15 13 13 14 14 15 17 16 14 16 17 20 21 20 19 18 18 16 15 13 13 13 12 12 15 16 17 17 16 17 18 19 18 17 16 15 15 16 17 19 20 19 19 20 20 21 21 22 23 25 25 24 23 23
19 20 20 16 13 14 14 14 14 14 14 14 14 15 17 13 14 16 14 16 17 16 16 16 16 14 12 12 11 12 12 13 16 16 15 16 17 16 17 18 16 15 13 13 13 14 16 18 18 17 17 19 20 20 21 22 24 25 26 24 24 24
19 21 19 16 15 15 15 14 12 12 13 14 15 16 15 14 15 17 14 14 15 14 13 14 14 13 12 13 13 12 13 14 16 15 14 15 15 14 14 14 14 13 11 11 12 14 16 18 18 16 16 18 19 20 21 22 24 26 26 25 25 25
20 21 20 20 20 19 17 15 12 11 13 14 15 15 15 15 16 17 16 15 17 16 14 14 12 11 11 13 14 15 15 15 15 15 13 13 14 12 12 13 13 12 10 11 12 13 15 15 17 16 15 17 18 20 21 23 24 25 26 26 26 27
22 24 22 20 20 20 18 16 13 12 13 13 14 15 15 15 15 15 14 14 15 15 16 15 13 11 11 12 13 15 16 16 16 15 13 12 13 13 13 13 13 11 10 12 12 12 13 14 14 15 14 14 16 18 19 20 22 23 25 26 26 27
24 25 20 17 18 19 18 16 14 13 14 14 14 15 14 13 12 11 11 13 14 15 17 17 17 15 15 14 15 16 16 16 16 15 13 12 13 14 13 13 12 10 10 12 10 9 11 10 10 12 12 13 14 15 17 17 18 20 21 22 24 25
25 23 18 15 16 18 18 17 15 15 15 15 15 14 13 12 11 13 14 15 17 18 19 19 19 19 18 18 18 18 16 15 15 15 14 12 12 13 12 11 10 9 9 11 10 8 8 8 9 10 10 11 12 12 14 15 16 17 17 18 19 20
23 20 16 17 18 20 20 19 17 16 17 17 16 14 13 13 14 17 19 20 21 22 23 21 19 18 17 16 16 16 15 14 14 14 13 12 12 12 11 10 9 9 9 10 10 8 8 8 9 9 9 10 10 9 10 12 13 14 14 15 16 17
20 18 17 19 21 21 21 20 17 16 16 16 16 15 15 16 18 20 22 23 23 22 21 20 17 15 15 14 13 14 14 13 14 14 13 12 11 11 10 9 8 8 9 10 10 9 8 8 9 9 8 8 10 10 9 9 11 12 12 13 14 15
19 19 19 20 21 21 22 21 19 17 16 14 15 16 18 19 21 21 22 23 21 19 17 15 14 14 14 14 13 13 13 13 14 13 13 12 11 11 10 9 8 8 8 10 11 11 10 10 10 10 9 9 10 11 10 10 10 11 12 12 13 14
21 21 20 19 20 22 23 22 20 19 16 14 15 18 19 20 19 18 18 18 17 15 14 14 14 15 15 15 15 14 13 13 13 12 12 12 11 11 11 10 9 8 9 11 11 11 11 11 12 12 11 11 11 12 12 12 11 12 12 11 11 12
23 23 22 20 19 21 22 23 21 19 17 16 16 17 17 17 16 14 14 14 14 14 14 15 15 15 15 15 16 15 14 13 13 12 12 12 12 11 11 11 10 9 10 10 11 12 11 11 12 13 13 12 13 13 14 14 13 13 13 12 12 13
24 25 25 22 19 18 20 22 21 19 16 15 15 16 16 16 15 14 14 14 14 15 15 16 15 15 15 15 15 14 13 13 12 12 12 12 12 12 12 12 11 10 11 11 11 11 11 12 13 14 14 14 15 14 15 16 14 14 15 14 13 14
26 27 28 24 19 17 19 21 20 19 17 15 15 16 17 16 15 16 16 16 16 16 16 16 15 15 15 15 14 14 13 13 13 13 13 12 12 12 12 12 12 11 11 12 12 11 11 12 13 14 15 14 15 16 17 17 15 15 14 14 14 13
27 29 28 24 18 16 18 20 20 20 17 15 15 17 17 16 16 17 18 18 18 17 17 16 16 15 14 14 14 13 13 13 13 13 13 13 12 12 12 12 12 12 12 12 13 12 12 13 13 15 15 15 16 17 18 19 17 15 14 14 15 15
27 28 28 25 20 17 18 20 22 22 18 15 16 18 18 18 18 19 19 19 19 18 17 17 16 15 14 14 13 13 13 13 14 14 14 14 13 13 12 12 12 12 12 12 13 13 13 14 14 16 16 17 17 17 19 20 18 16 16 16 17 17
26 25 26 27 22 18 20 24 26 24 18 16 16 18 18 19 19 19 20 20 19 18 17 16 15 15 14 13 13 13 13 13 14 14 14 14 14 13 13 13 13 12 12 12 13 12 13 14 14 16 16 17 18 18 19 19 17 17 17 17 17 18
24 22 24 27 24 21 24 27 29 26 19 16 17 18 19 19 20 20 21 20 20 18 17 16 14 14 14 13 13 13 13 13 14 14 15 14 14 13 13 12 13 12 12 13 13 13 14 14 15 17 17 17 17 18 19 20 19 19 19 19 19 18
22 21 22 25 24 24 25 27 31 28 22 18 18 20 20 20 21 21 21 21 20 18 16 15 13 13 13 13 13 13 13 13 13 14 15 15 14 14 13 13 12 12 12 13 13 13 14 14 15 17 17 16 17 18 19 21 20 20 20 20 20 20
23 23 22 22 22 22 23 26 31 29 23 20 20 20 20 21 22 22 22 21 20 18 16 14 13 12 12 13 13 13 13 13 13 14 14 15 15 15 15 14 13 13 13 13 13 13 14 14 15 16 16 17 17 17 19 20 21 21 20 21 20 18
24 25 25 23 22 23 22 25 29 27 23 21 20 20 20 21 22 22 22 20 19 17 15 13 12 11 11 13 14 14 15 15 15 15 16 16 17 17 17 16 15 15 14 14 14 14 14 14 14 15 16 16 16 16 17 19 20 19 19 19 18 17
23 25 24 22 23 24 22 22 25 22 19 20 19 19 20 20 21 22 21 19 18 16 14 12 10 10 11 12 14 14 15 16 16 17 17 17 18 18 18 18 17 17 16 15 15 15 15 14 14 14 15 16 16 16 16 18 19 19 18 18 19 20
20 21 23 23 23 23 21 21 23 21 18 18 19 19 19 20 20 20 20 19 17 16 14 12 10 9 10 11 12 12 13 14 15 16 17 17 18 19 19 20 19 18 17 16 16 16 16 16 15 15 15 15 16 16 16 17 18 19 20 20 21 22
20 22 23 24 23 24 24 24 28 27 23 20 19 19 20 20 21 20 19 18 17 16 15 13 11 9 10 12 12 12 13 14 16 17 18 19 20 20 21 21 20 20 19 18 17 17 17 17 16 16 15 15 16 16 16 16 17 18 19 20 21 21
22 23 24 25 25 24 25 26 29 31 28 23 21 21 21 21 21 20 19 17 16 16 16 14 12 11 12 13 13 14 16 17 18 19 20 20 20 21 21 21 21 21 20 19 18 18 17 17 17 16 16 15 15 15 15 16 16 18 18 19 20 20
22 22 23 25 25 24 23 26 28 29 29 27 24 23 23 22 22 20 18 17 16 16 17 16 15 14 14 15 15 16 17 18 19 19 19 19 19 20 20 21 21 21 21 21 20 19 18 17 17 16 15 15 15 14 14 14 15 17 18 18 18 18
24 25 25 25 27 26 26 26 26 27 28 29 27 25 24 23 22 21 19 18 17 17 18 18 17 17 17 17 17 17 18 18 19 19 19 19 20 20 21 21 22 22 22 21 20 20 19 18 17 17 16 15 14 13 13 13 14 15 16 17 17 17
26 27 27 28 29 30 30 29 27 28 29 29 28 26 25 24 23 22 20 19 18 19 20 20 20 20 19 18 18 18 19 19 19 19 19 20 20 21 21 22 22 22 22 21 20 20 19 19 18 17 16 15 14 13 12 12 13 14 15 15 16 17

ECMWFFLT2_500_spd_060.txt.gz
Wind_Speed
23 23 23 22 22 22 22 21 21 21 21 23 22 24 25 24 24 25 26 29 28 26 27 30 34 35 35 35 30 23 20 18 16 14 14 14 14 14 15 15 15 16 16 17 18 19 19 19 18 17 18 18 18 17 17 17 16 12 11 13 14 13
23 22 21 21 21 20 20 20 20 20 21 22 22 24 25 23 24 26 28 31 32 29 28 31 34 36 35 31 26 21 19 17 16 15 14 14 15 15 16 16 16 16 17 18 19 19 19 19 19 18 18 19 19 18 17 18 17 13 12 14 15 14
23 22 21 19 18 18 18 19 19 19 20 22 22 23 23 22 23 25 28 30 30 29 30 32 34 35 29 24 22 20 18 17 15 15 15 15 15 16 16 16 16 17 18 18 19 19 20 20 20 19 19 20 19 19 18 18 17 13 12 16 16 15
22 21 20 18 17 17 17 18 18 19 20 20 21 21 21 21 22 24 25 26 25 25 27 29 29 27 22 19 18 18 17 15 15 14 15 15 16 15 15 15 16 17 18 18 18 19 20 21 20 19 20 21 20 19 19 19 18 13 12 17 18 17
22 22 21 19 18 17 18 18 19 19 18 18 18 19 20 21 22 22 22 22 20 19 20 21 21 21 19 16 15 15 15 15 15 15 16 16 15 14 14 15 16 17 17 17 18 19 20 20 20 20 20 21 19 19 19 20 19 13 13 18 20 18
24 24 23 21 19 19 19 18 19 18 16 17 18 20 22 22 22 21 19 18 17 16 16 16 16 18 17 14 13 14 15 15 15 15 15 14 14 14 14 16 18 18 17 17 18 18 19 19 19 20 19 19 19 18 19 20 19 15 14 18 20 18
25 25 24 22 20 18 17 17 17 16 15 15 17 19 22 22 22 20 18 18 17 16 17 15 12 13 12 12 13 13 14 14 13 14 13 13 13 14 15 16 18 18 16 17 17 18 18 18 19 19 19 18 18 18 19 19 17 15 15 17 18 18
24 23 24 22 19 16 15 16 16 16 14 14 16 17 20 22 21 19 17 17 15 14 15 15 12 10 11 12 13 13 13 12 11 13 13 13 13 14 16 15 16 17 17 16 16 17 17 17 18 18 18 17 17 17 19 19 15 15 16 16 18 19
25 24 23 19 15 15 16 16 16 15 14 14 15 15 19 19 16 15 13 11 11 11 12 13 13 13 13 13 14 13 11 10 10 11 11 13 14 14 16 15 15 16 17 16 15 16 15 17 18 17 16 16 16 17 18 17 14 15 17 16 17 18
22 21 18 16 15 16 17 15 13 11 11 13 12 12 15 13 11 12 11 9 9 10 11 12 13 12 12 12 13 12 10 9 9 10 10 11 13 13 14 15 14 14 15 14 13 14 14 16 18 16 14 15 16 16 16 16 14 15 16 16 17 17
19 18 16 17 17 17 15 11 8 7 7 8 8 9 11 11 9 9 8 7 8 9 11 11 11 10 10 9 10 10 8 9 9 10 10 10 11 12 13 13 12 12 14 13 12 13 14 15 16 15 14 15 16 14 13 14 15 15 15 16 16 16
20 20 19 19 18 13 9 6 5 5 5 7 10 9 10 11 9 8 7 8 8 9 9 10 10 10 9 8 7 8 8 9 9 10 11 10 9 11 11 10 10 12 13 14 12 12 12 13 14 14 15 15 16 13 11 13 14 14 14 15 16 17
21 22 20 20 18 13 8 6 7 7 8 11 12 9 9 10 10 9 9 9 8 9 9 9 9 8 8 7 6 7 8 9 9 10 10 9 8 9 10 9 9 11 12 12 11 11 12 12 14 14 12 12 12 12 12 12 13 14 14 15 16 17
21 21 20 19 17 14 11 12 12 11 12 13 13 10 10 12 11 9 8 8 9 8 7 7 8 8 8 8 9 10 10 9 9 9 8 7 8 8 9 9 9 10 9 10 10 11 11 11 12 11 8 8 9 10 11 12 14 13 13 15 16 16
20 19 19 18 16 14 14 16 16 13 13 12 12 11 12 14 12 10 8 8 8 8 7 7 9 10 11 11 11 11 11 10 9 8 7 7 7 7 8 8 8 8 8 8 9 10 10 9 9 7 7 8 8 9 11 13 15 14 12 13 14 14
19 19 19 19 18 15 14 15 16 16 16 14 13 12 13 15 12 9 8 7 8 9 10 10 12 13 13 13 11 10 10 9 9 8 7 7 6 6 7 7 7 7 7 7 8 9 8 7 5 6 7 7 6 9 11 12 14 14 11 12 14 13
17 18 18 19 18 14 13 13 15 17 17 16 17 16 16 15 12 11 10 10 10 11 12 14 15 15 15 14 11 9 9 8 8 8 7 6 6 6 7 6 6 6 6 6 7 8 8 6 4 5 6 5 4 5 8 9 10 11 11 11 12 12
17 17 16 17 17 16 14 14 14 16 16 16 17 17 17 16 14 14 14 14 14 14 15 15 14 14 14 13 11 9 9 9 9 8 7 6 5 6 6 6 6 5 5 5 6 7 8 7 6 6 6 5 4 4 6 7 8 10 10 11 12 12
18 16 16 17 17 16 14 13 14 15 16 15 15 15 16 16 16 17 18 19 19 18 17 15 12 10 10 10 10 10 10 10 10 9 7 6 6 6 7 7 6 5 5 6 7 7 7 8 8 8 7 5 5 5 6 6 8 10 10 13 14 12
19 19 19 19 18 15 12 12 13 14 16 16 15 15 16 17 18 19 21 22 22 19 16 13 10 8 8 9 10 11 11 11 10 9 7 7 7 7 7 7 7 6 6 6 7 7 8 8 9 8 8 7 6 6 6 7 9 11 11 13 15 12
21 22 21 19 18 14 12 13 13 14 17 17 16 16 16 18 19 20 21 21 20 17 14 12 9 8 9 10 11 11 11 10 10 9 8 7 8 7 7 7 7 7 7 7 7 8 8 9 9 9 8 8 7 6 7 8 9 10 12 13 15 14
22 23 23 20 17 15 14 14 15 15 16 17 16 17 18 18 18 18 20 20 18 16 14 12 11 10 11 11 10 10 10 10 10 9 7 7 7 7 7 8 8 8 8 8 8 8 8 8 9 9 9 9 9 8 8 8 9 10 11 12 15 16
22 23 23 20 18 17 16 15 15 14 16 17 17 18 19 18 17 17 19 19 17 16 15 14 13 13 12 11 11 10 10 10 10 9 8 7 7 7 7 8 8 9 9 9 9 9 8 9 9 10 10 10 9 9 8 9 10 10 11 13 14 16
21 24 24 21 18 18 17 15 14 15 17 19 18 18 18 17 16 18 19 19 18 17 15 15 15 14 14 13 12 11 10 9 9 8 8 8 8 8 8 8 8 9 9 10 10 9 9 9 10 10 10 10 10 9 9 10 11 10 12 13 13 15
21 23 24 21 18 18 18 16 16 16 18 19 19 19 18 17 17 18 18 19 18 17 16 16 15 15 15 14 13 12 11 10 8 8 8 8 8 9 8 8 8 9 9 9 10 10 10 10 10 10 10 10 10 10 10 11 11 11 11 12 12 14
20 21 20 18 18 18 18 19 18 17 18 20 20 20 18 16 16 17 17 18 18 18 17 17 17 16 15 14 14 13 12 11 9 9 8 8 9 9 9 9 9 9 9 9 10 11 11 10 10 10 10 10 10 10 11 10 10 11 12 13 13 14
20 19 18 18 18 18 19 19 18 17 19 21 22 22 18 14 14 16 17 17 18 19 19 18 18 17 16 15 14 12 11 10 10 10 9 9 9 9 9 9 10 10 10 10 10 11 11 11 11 10 10 10 10 11 11 11 11 12 13 14 15 16
18 18 20 20 19 19 19 19 18 18 18 20 23 22 16 14 15 16 17 18 18 18 19 19 18 17 16 15 13 12 11 10 10 10 10 9 9 9 9 9 10 10 11 11 11 11 11 11 11 11 11 11 11 11 12 12 13 13 14 15 16 17
15 16 18 18 16 16 17 18 17 16 16 18 23 24 19 18 19 18 18 18 19 18 18 19 19 18 16 14 13 11 11 10 10 10 10 10 10 10 10 10 11 11 12 13 12 12 12 12 12 12 11 11 11 11 12 13 14 14 15 15 16 17
13 13 13 14 14 15 15 16 16 16 16 17 22 25 25 23 21 20 20 20 20 19 18 18 19 18 15 14 13 12 11 11 11 11 11 11 12 12 12 12 12 13 13 14 14 14 14 13 13 13 12 12 11 11 12 13 14 15 15 15 16 16
13 12 11 13 16 17 17 16 16 18 18 18 21 25 26 23 21 20 21 22 21 19 18 18 19 17 14 13 13 12 12 12 12 12 12 13 12 12 12 12 13 13 14 15 16 16 16 16 15 15 14 14 13 13 13 14 15 15 16 16 16 16
15 15 13 13 14 15 15 17 19 20 19 18 20 23 23 20 19 20 22 22 21 19 18 18 18 17 14 13 13 12 12 11 11 11 11 11 11 11 12 13 14 14 15 16 17 17 18 18 18 17 17 16 15 15 14 15 16 16 17 17 16 16
17 16 15 16 16 15 16 17 20 21 20 19 18 20 23 22 22 23 22 21 20 19 19 18 18 17 15 14 13 13 12 11 11 11 11 12 12 13 14 15 15 15 15 16 16 17 17 18 19 19 19 18 18 17 16 16 17 17 17 17 17 17
17 16 16 17 18 19 19 19 19 21 21 20 18 20 24 26 27 24 21 20 20 20 19 18 18 18 17 15 14 14 13 13 13 12 13 14 15 15 15 15 15 15 15 15 15 16 17 18 19 19 19 19 19 18 18 17 17 18 18 17 18 18
18 17 17 17 17 17 18 17 18 19 19 17 18 21 24 26 26 24 21 20 20 21 20 18 18 19 19 17 15 15 15 14 14 14 14 15 16 16 15 15 14 14 14 15 15 16 17 18 18 19 19 19 19 19 19 18 18 18 18 18 18 18
19 19 17 18 18 18 17 17 18 19 19 18 19 21 23 24 24 23 22 21 21 21 20 19 19 20 20 19 17 16 16 16 16 16 16 17 17 17 17 16 15 15 15 15 15 16 17 18 18 19 19 19 19 19 19 19 18 17 17 17 18 18
21 21 19 18 18 18 18 18 18 20 23 24 24 23 24 24 23 23 23 22 22 22 21 20 20 21 21 20 19 18 18 18 18 18 18 18 18 18 18 18 17 16 16 16 17 17 17 18 18 19 19 19 18 18 18 18 18 18 17 17 17 18

ECMWFFLT2_500_spd_063.txt.gz
Wind_Speed
22 22 22 22 22 21 21 21 22 22 21 21 22 22 21 21 21 21 21 20 19 18 18 19 20 19 22 26 27 28 29 30 27 21 19 18 16 15 14 13 13 13 13 13 13 14 14 15 15 16 17 17 17 17 14 9 8 10 12 13 13 12
22 22 22 22 22 22 22 22 22 21 20 19 20 20 20 22 22 22 21 21 20 20 19 22 25 24 23 26 27 28 29 28 24 19 18 17 16 15 14 15 14 14 14 15 15 15 15 15 16 17 18 18 18 17 15 10 9 11 12 14 15 14
23 22 21 21 21 21 21 21 21 19 18 18 19 19 18 18 18 17 17 18 18 19 20 22 25 27 26 26 27 28 27 24 21 19 17 16 14 14 14 15 15 15 15 16 17 16 15 16 17 18 18 18 18 18 16 11 9 11 13 14 15 15
22 21 20 19 19 20 20 21 20 19 18 19 19 18 16 17 18 17 16 15 15 16 16 16 18 23 26 25 27 27 22 20 19 16 15 14 13 14 15 16 17 17 17 17 17 15 15 16 17 18 19 19 18 18 17 12 10 11 12 14 16 16
21 20 19 19 20 20 20 20 19 19 19 19 19 18 17 16 14 13 13 13 13 13 13 11 10 15 21 22 24 21 17 16 15 13 13 13 14 15 17 18 18 18 17 17 15 13 14 16 16 17 18 18 18 19 17 12 10 11 12 15 16 16
19 18 19 20 20 20 19 19 19 19 18 18 18 18 18 15 13 14 15 15 14 13 11 9 8 10 15 17 18 16 14 13 12 11 12 13 14 16 18 19 18 16 16 16 14 13 15 17 16 16 17 17 17 18 16 13 12 12 13 15 16 17
18 17 18 19 19 19 19 18 18 18 17 17 17 18 19 18 17 18 18 18 16 14 11 9 9 10 11 13 14 14 12 11 10 10 12 13 13 14 15 16 16 15 15 16 15 15 17 17 17 16 16 16 17 18 15 13 12 12 14 15 16 17
17 17 18 18 18 19 18 17 17 17 16 17 17 17 17 16 16 17 17 18 16 16 14 11 11 10 10 11 12 11 10 9 9 10 12 12 12 13 13 13 14 14 15 15 15 15 16 17 17 16 16 16 17 17 15 13 13 14 15 16 17 18
18 18 18 17 18 18 17 16 16 16 18 18 17 15 14 14 14 14 15 15 13 12 12 10 10 10 10 9 9 9 9 10 10 11 11 11 11 11 11 12 13 13 14 14 13 14 15 16 16 15 14 15 16 15 15 14 14 15 17 17 18 18
20 17 16 16 16 17 16 17 18 18 18 16 14 12 11 12 12 11 10 9 7 7 7 7 8 9 8 7 7 8 9 10 10 11 10 10 9 10 11 12 12 12 12 11 11 12 14 15 14 14 14 14 14 14 15 16 16 16 17 18 17 17
17 14 15 15 15 16 17 17 17 16 14 11 9 8 7 8 9 9 8 8 6 4 3 4 5 6 6 5 6 6 7 8 9 9 9 9 8 9 10 11 12 12 11 10 10 12 14 15 13 13 13 13 12 14 16 16 17 17 16 18 17 15
15 17 19 17 17 18 18 17 15 14 11 8 5 5 6 8 8 8 6 4 3 2 2 3 3 3 4 3 4 5 5 6 7 8 8 9 9 9 10 11 11 11 10 10 10 12 14 14 12 12 12 12 12 13 16 16 16 16 14 16 18 16
20 20 19 17 18 19 18 17 16 14 10 7 6 6 7 9 7 5 4 2 2 3 2 2 2 3 3 3 4 4 4 5 7 8 9 10 10 10 10 10 10 9 9 9 10 12 13 12 12 11 11 10 9 11 15 15 14 13 11 13 16 16
20 19 18 18 19 19 18 17 16 15 13 10 8 8 8 8 9 8 6 4 3 3 2 2 2 3 3 3 4 5 5 6 8 10 11 11 9 9 8 8 8 8 9 9 9 11 10 10 10 10 9 7 5 7 11 13 12 10 10 11 13 15
19 20 19 19 18 17 17 16 15 15 15 14 11 9 9 10 10 9 6 3 2 3 3 3 2 3 3 4 5 7 8 8 9 10 11 10 7 7 7 6 7 7 8 8 8 8 7 6 7 6 6 5 4 6 8 10 9 8 9 9 10 12
19 17 17 18 17 18 19 18 16 17 16 15 12 10 9 8 8 6 3 2 3 3 2 2 3 5 5 7 8 9 10 9 9 9 9 8 6 6 6 5 6 6 6 7 6 6 4 3 4 3 2 3 4 5 8 9 9 8 9 7 7 8
16 15 15 16 16 17 18 18 16 15 14 13 11 9 9 8 7 4 2 4 5 4 4 5 7 8 9 9 9 9 9 8 7 7 7 7 6 5 5 4 5 5 5 6 5 4 3 2 1 1 2 2 3 4 6 7 7 6 6 6 6 6
15 16 17 17 16 15 15 16 15 12 11 12 11 10 10 9 8 5 4 7 6 5 7 8 10 10 9 8 7 6 6 7 6 6 6 5 5 5 5 5 5 5 5 5 4 4 3 2 2 2 3 3 2 3 4 5 5 5 4 4 5 6
16 17 18 18 17 15 14 15 14 12 11 13 13 12 10 8 7 7 8 8 6 7 9 11 11 10 8 6 5 5 5 6 6 6 6 6 6 6 6 6 7 6 5 5 5 4 3 2 2 2 3 4 4 4 3 5 6 5 6 6 6 6
18 17 18 19 17 14 13 12 12 11 11 12 12 11 11 9 9 10 10 9 8 10 11 11 10 8 7 6 5 5 5 6 6 6 7 7 7 7 7 7 7 7 6 5 6 5 4 3 2 2 3 4 5 6 5 6 6 5 6 7 7 6
19 18 18 18 18 16 14 13 12 11 11 13 13 12 12 11 10 10 10 10 11 11 10 10 9 7 7 7 6 6 6 7 7 7 7 8 8 8 7 7 7 7 6 6 6 6 5 4 3 3 4 4 6 7 7 6 6 7 7 7 7 7
18 18 18 18 19 18 16 15 13 12 13 14 15 14 13 12 11 11 10 10 10 10 9 9 9 9 9 9 8 8 7 7 7 7 7 7 7 7 8 8 7 6 6 7 7 6 5 4 4 5 5 6 8 8 8 7 7 8 8 8 8 8
18 17 17 17 18 18 17 15 13 13 14 14 15 15 14 13 13 12 11 11 10 9 8 9 10 10 10 10 10 10 9 9 8 7 7 7 7 7 7 7 6 6 6 7 7 6 5 5 5 6 6 7 8 9 8 8 9 9 9 9 9 8
17 16 16 16 16 18 17 16 14 13 13 13 14 15 15 14 13 12 12 11 10 9 9 10 11 11 11 11 11 11 11 10 9 8 7 7 7 7 6 6 6 6 6 7 7 6 6 6 6 7 8 8 8 9 9 9 10 10 10 10 10 9
16 15 14 14 16 17 16 15 13 13 12 12 13 15 16 14 13 12 12 11 11 11 11 11 12 12 12 12 12 11 11 10 9 8 7 7 7 6 6 5 5 6 6 6 6 6 6 6 7 8 9 9 9 9 10 10 11 10 10 10 10 9
15 14 12 12 12 12 13 13 12 12 12 12 12 14 16 16 14 12 11 11 11 12 13 13 13 13 13 13 12 11 10 9 9 8 7 7 6 5 5 5 5 5 6 6 6 6 6 7 8 8 9 10 10 10 10 11 11 10 10 10 10 10
13 13 11 10 8 9 11 11 12 13 13 13 13 14 15 16 13 11 10 10 12 13 14 14 14 14 13 13 12 10 10 10 9 8 7 7 6 6 5 5 5 5 5 5 6 6 7 8 9 9 10 11 11 11 12 11 11 10 10 10 10 11
9 10 8 8 8 10 11 12 13 13 12 12 13 13 13 14 13 10 9 10 13 15 15 16 16 15 14 13 12 11 10 10 9 8 7 7 7 6 6 6 5 5 5 5 6 7 8 9 10 10 11 11 12 12 13 12 12 12 11 10 10 10
5 5 5 6 8 10 10 10 10 10 11 11 11 11 11 12 15 14 13 13 15 15 16 17 18 18 17 15 13 11 10 10 9 8 7 7 7 7 6 6 6 6 6 6 7 8 9 10 10 10 11 11 12 13 13 13 13 13 12 11 10 10
4 3 4 5 4 6 7 7 7 6 7 8 9 9 9 11 15 18 19 19 18 16 16 18 18 19 19 17 16 13 11 10 9 9 8 8 8 8 7 7 7 7 7 7 8 8 9 10 10 10 11 12 12 13 13 13 13 13 13 12 11 10
7 5 4 5 4 4 5 6 7 7 7 8 9 11 11 13 16 19 22 21 18 16 17 18 19 19 19 18 17 15 12 10 9 8 8 8 8 8 8 8 7 7 7 8 8 9 9 10 11 11 11 12 12 13 13 13 13 13 13 13 13 11
9 7 6 5 4 4 5 6 6 7 8 10 12 13 14 15 17 19 20 18 15 15 17 19 19 19 19 19 18 16 14 11 9 8 8 7 7 7 7 8 8 8 8 9 9 9 9 9 10 10 11 12 12 13 13 13 13 13 13 14 13 12
9 8 6 5 5 6 6 7 7 8 9 12 13 14 14 15 16 17 17 16 16 17 18 18 19 19 19 18 17 17 15 12 10 9 8 8 8 8 9 9 9 9 8 8 8 8 8 8 9 9 10 11 12 12 13 13 13 14 14 14 13 12
10 9 8 7 8 7 7 8 9 10 11 12 14 14 14 15 14 14 16 18 19 20 19 18 18 18 18 18 17 18 17 14 12 11 10 9 9 10 10 10 9 9 8 8 7 7 7 7 8 9 9 11 12 12 13 13 14 14 14 14 12 11
13 12 11 10 9 9 8 8 9 9 10 12 13 14 14 14 13 14 17 19 22 22 20 18 18 18 18 17 18 19 18 16 14 13 12 12 12 11 11 11 10 9 9 8 8 7 7 8 8 9 9 10 11 11 12 13 14 14 14 13 12 11
14 14 13 12 11 10 9 9 10 10 11 12 13 14 14 14 13 14 16 19 21 22 20 19 19 19 18 17 18 20 19 17 15 15 15 15 14 13 13 12 11 10 9 8 8 8 8 8 8 8 9 9 10 11 11 12 12 12 12 12 11 10
14 14 14 13 12 11 10 10 10 10 11 12 14 15 17 17 16 16 17 18 20 22 22 22 21 21 19 18 18 19 20 18 17 17 17 17 17 16 14 13 12 10 10 9 8 8 8 8 8 8 8 9 9 10 11 11 11 11 11 11 10 8

ECMWFFLT2_500_spd_069.txt.gz
Wind_Speed
27 27 28 28 27 27 27 27 27 26 25 24 23 22 22 22 22 22 22 20 19 19 19 19 20 21 20 18 17 20 22 22 24 26 28 28 26 24 22 20 18 18 19 18 16 16 16 15 11 9 9 9 10 12 13 13 12 12 12 12 11 12
27 27 27 27 27 27 27 27 27 27 26 24 23 22 22 21 21 22 21 20 19 19 20 20 20 21 21 20 17 18 21 23 24 27 30 28 26 25 24 23 18 18 19 18 18 18 18 17 13 10 10 11 12 13 14 13 13 13 13 13 12 12
27 27 27 27 26 26 26 26 26 25 24 23 22 22 21 21 21 22 21 21 21 21 21 20 19 19 20 19 17 18 21 24 25 28 30 28 25 24 25 23 18 18 19 18 19 19 19 18 14 12 11 12 13 14 15 14 14 14 14 14 13 13
28 28 28 26 25 24 24 23 23 22 22 22 22 21 21 21 22 23 23 23 22 22 22 21 20 19 18 18 18 19 22 25 27 29 30 29 25 22 21 19 18 18 19 19 20 20 20 18 16 14 13 13 13 15 16 16 16 15 15 15 14 14
28 29 28 26 24 23 21 19 19 19 20 21 21 21 21 21 22 22 23 22 22 21 21 21 19 16 15 16 17 19 23 27 29 29 30 30 24 19 17 17 18 19 19 19 19 20 20 19 17 16 14 13 14 16 17 17 17 16 15 15 15 15
30 30 28 25 22 20 17 16 16 17 18 19 19 20 20 21 21 21 21 20 20 19 18 16 15 14 14 15 17 19 21 24 27 28 32 30 20 16 17 18 19 19 19 18 19 20 20 20 18 17 16 15 15 17 17 17 17 17 16 16 16 16
31 30 27 23 20 18 16 14 14 16 17 18 18 19 19 19 19 19 20 20 19 18 17 17 16 16 15 15 16 17 19 20 20 24 31 28 17 16 18 18 19 18 18 18 19 20 20 20 19 19 18 17 17 17 17 17 17 17 17 17 17 16
27 26 25 21 18 17 15 15 15 16 16 17 17 17 17 17 18 19 19 19 19 18 18 19 20 19 17 15 15 15 16 17 15 18 25 23 17 17 18 18 18 17 18 17 18 19 20 20 20 20 19 19 19 18 18 17 17 16 17 17 17 16
19 20 20 19 18 17 17 17 16 15 15 15 16 17 16 16 17 18 18 18 17 16 17 19 20 18 17 16 15 14 15 16 14 15 19 18 17 18 17 17 16 16 17 17 17 18 18 19 19 20 20 19 19 18 18 18 17 16 15 16 16 15
14 16 15 15 16 16 15 14 12 12 14 15 16 16 16 16 15 16 16 16 15 14 14 16 16 16 17 16 14 14 14 14 14 14 16 17 17 17 16 15 15 16 17 17 18 18 18 18 18 19 19 19 18 17 17 18 17 15 15 15 15 15
18 18 15 14 13 13 12 11 11 13 14 15 16 16 16 15 14 14 15 13 12 11 10 9 10 13 15 14 12 11 11 12 13 14 16 16 16 15 14 14 15 16 16 17 18 18 17 17 17 17 16 16 16 17 17 18 18 16 15 15 14 15
20 16 14 14 14 14 14 14 13 14 14 15 15 15 14 13 13 12 11 10 9 7 5 4 6 9 11 11 11 10 10 11 13 14 15 15 15 14 13 13 15 16 16 17 17 16 16 16 15 15 15 15 16 17 18 19 18 16 15 14 14 14
14 12 14 13 13 14 14 14 13 14 14 14 14 13 12 11 10 8 7 6 5 4 3 4 6 6 8 10 10 10 11 12 12 13 13 14 13 13 13 14 15 16 16 16 15 14 14 13 13 13 14 15 16 17 18 18 18 16 14 14 14 14
14 15 15 13 14 14 13 13 13 13 13 11 10 9 9 10 9 7 6 6 5 5 4 5 6 6 7 9 9 9 10 10 11 11 11 12 12 13 13 14 14 15 15 14 12 12 11 11 11 12 14 15 16 16 16 16 16 16 15 14 14 14
16 13 9 8 10 12 13 12 11 10 10 10 10 9 10 11 10 8 8 8 8 7 6 6 7 7 7 8 8 8 8 8 8 9 9 11 12 13 13 13 14 14 14 11 9 9 10 10 11 12 12 13 14 14 13 12 12 13 13 12 12 12
13 10 7 7 8 8 9 10 10 9 9 10 11 11 11 13 13 11 9 8 8 7 7 8 9 9 8 8 8 8 8 8 8 9 10 12 13 13 13 13 13 13 11 9 8 9 9 10 10 11 10 10 10 10 9 8 8 8 10 10 10 10
13 12 13 13 13 12 11 10 11 11 10 10 11 12 12 13 13 11 9 7 7 7 8 9 9 9 8 7 8 8 9 9 10 11 12 13 13 13 13 13 12 11 9 8 8 8 9 9 9 9 9 8 7 6 6 6 6 6 8 8 9 10
14 13 13 15 16 15 13 13 13 12 11 10 10 11 11 11 11 10 8 8 8 10 11 10 9 7 7 8 9 10 11 12 12 12 12 11 11 11 11 11 10 9 8 8 7 8 8 8 8 8 8 6 5 5 4 4 4 4 4 5 8 9
14 13 13 13 13 13 13 14 14 13 12 11 11 10 9 10 10 10 9 9 10 11 11 10 8 8 8 9 11 11 12 13 12 12 11 10 9 9 10 11 10 10 9 8 8 7 7 8 8 8 8 7 6 5 4 3 3 3 3 4 6 7
14 13 13 13 13 13 13 15 15 13 12 11 11 11 11 11 11 10 9 10 11 12 12 10 9 9 9 10 11 11 12 12 11 10 10 9 9 9 11 11 11 10 10 9 8 7 7 8 8 8 8 8 7 5 4 3 4 4 5 5 6 7
15 13 13 13 13 14 14 15 15 13 12 11 12 13 12 12 11 10 10 10 11 12 12 11 10 9 9 9 9 9 9 9 9 9 9 9 9 10 11 12 12 11 11 10 9 8 9 9 9 9 8 8 7 7 6 5 5 6 6 6 7 7
13 13 14 14 14 15 16 16 15 14 14 13 12 12 11 10 10 10 10 10 11 13 13 12 10 9 8 8 8 8 8 8 8 9 9 10 10 11 12 12 12 12 11 10 10 9 9 9 10 10 9 8 8 8 8 7 6 6 6 7 7 8
12 12 14 14 15 16 17 16 15 14 14 13 12 11 10 9 9 10 12 12 12 12 12 11 9 8 8 8 8 8 8 8 9 9 9 9 10 10 11 12 12 11 11 10 11 10 10 10 11 11 10 9 9 9 9 9 8 7 7 8 9 9
13 14 16 16 16 17 17 17 15 13 13 13 13 11 10 9 11 13 14 13 12 11 11 10 9 9 8 8 8 8 8 8 9 9 10 10 9 10 10 11 11 11 11 11 11 11 10 10 11 11 10 10 10 11 11 11 10 9 9 9 10 10
15 15 17 18 18 18 17 15 14 12 12 14 13 11 10 11 13 15 14 13 12 11 11 11 10 10 9 9 8 8 8 9 10 11 11 11 10 10 11 11 12 12 11 11 11 11 11 11 11 12 12 11 11 11 12 12 11 10 10 10 10 10
15 15 17 17 17 17 15 15 15 15 16 17 17 13 11 12 14 15 14 13 12 11 11 11 11 10 10 9 9 8 9 10 10 12 12 11 11 11 12 12 13 12 12 12 12 12 11 11 12 13 13 12 11 11 12 12 12 11 11 11 11 10
14 16 17 16 16 15 15 17 17 19 20 21 19 15 12 12 13 13 13 12 12 12 11 11 11 11 10 9 9 9 9 10 10 11 11 11 11 12 13 13 14 14 14 14 13 12 12 12 12 13 13 11 11 11 12 12 12 11 11 11 11 11
16 19 18 16 15 15 17 20 19 22 24 21 18 15 13 13 13 14 14 13 13 13 12 11 10 10 9 8 8 8 9 10 10 10 11 11 12 13 14 14 15 15 15 15 14 13 12 12 12 12 12 12 11 11 12 12 12 12 12 12 11 12
19 19 18 16 15 15 18 19 18 20 21 18 16 14 13 13 13 15 15 15 15 14 11 10 9 8 8 8 8 8 9 10 10 10 11 12 13 14 15 15 15 16 16 15 15 14 13 12 12 12 12 12 12 11 12 12 12 13 13 13 13 12
17 15 13 13 14 14 15 16 16 16 16 15 15 15 14 13 14 15 16 17 16 14 11 9 8 8 8 7 7 8 9 10 10 11 11 12 13 14 15 16 16 16 16 16 15 15 14 13 13 12 12 12 12 12 12 13 13 14 14 14 14 13
15 13 11 10 11 13 14 16 17 17 16 16 17 17 16 16 15 16 18 18 17 16 13 11 10 10 9 8 8 7 8 8 9 10 11 12 13 15 15 15 16 16 16 16 16 15 14 14 14 14 14 13 13 13 13 14 14 14 15 15 15 15
14 13 12 12 12 13 12 14 18 19 18 18 18 18 18 18 17 18 19 20 19 18 16 14 14 13 12 10 9 7 7 8 9 10 11 12 13 14 15 15 16 16 16 16 16 16 16 16 16 16 16 15 15 15 15 15 15 15 16 16 16 16
14 12 12 13 14 13 11 12 15 17 17 18 18 18 18 18 18 18 19 19 19 18 18 17 16 15 13 12 9 7 7 8 9 10 11 12 13 14 16 16 17 17 17 17 17 18 18 18 18 18 17 17 16 16 16 16 16 16 17 17 17 17
15 14 13 14 15 14 13 14 15 16 16 17 17 18 19 18 18 18 18 18 18 18 18 18 18 17 15 13 11 9 8 9 9 10 11 12 13 14 15 16 17 18 18 18 18 19 19 19 19 19 18 17 17 17 17 17 17 17 17 18 17 17
16 17 16 16 17 16 15 17 17 16 16 17 17 18 18 18 18 17 17 18 18 17 17 17 17 17 15 13 12 12 11 10 10 10 11 12 13 14 14 15 16 16 17 17 18 18 18 18 18 18 17 17 17 17 17 17 17 17 18 18 18 17
19 19 17 16 18 19 18 18 18 16 16 16 17 18 18 19 19 19 19 19 18 17 16 16 16 16 15 14 13 13 12 11 10 11 12 13 14 14 15 15 15 15 15 16 16 17 17 16 16 16 16 16 17 17 17 17 18 18 19 19 19 17
21 21 19 18 19 20 20 19 17 16 16 17 18 19 19 20 20 20 20 20 19 18 16 16 16 15 14 13 13 13 13 13 12 11 12 14 15 16 16 15 15 15 15 15 15 15 15 15 15 15 16 16 17 17 17 17 18 18 19 19 19 17

ECMWFFLT2_500_spd_072.txt.gz
Wind_Speed
24 24 24 25 26 25 25 24 23 23 23 22 21 21 20 21 21 20 19 18 18 17 17 17 17 17 18 19 20 20 20 18 19 22 22 20 19 19 20 20 19 16 14 13 12 10 11 10 9 10 11 12 12 12 12 13 13 12 10 9 8 8
24 23 24 24 25 24 24 24 24 24 23 23 21 20 20 20 20 18 17 16 17 17 17 17 18 19 20 21 21 22 21 20 19 22 23 22 22 22 22 21 19 18 17 15 12 11 11 11 9 10 12 12 13 13 13 14 14 13 12 11 10 9
23 23 23 23 24 24 24 24 24 24 24 22 21 20 20 19 18 17 16 17 17 17 17 19 19 20 21 20 21 20 21 20 20 22 23 23 24 25 25 23 22 21 20 17 13 12 12 11 10 11 12 13 13 14 14 14 14 15 14 13 12 12
21 22 23 23 24 24 24 24 23 23 23 21 19 18 19 18 18 17 17 17 17 17 18 19 19 20 20 20 19 19 20 20 20 21 22 22 23 27 28 26 24 19 17 16 14 13 12 12 12 12 13 14 15 15 15 15 15 15 15 14 14 14
21 22 23 24 25 25 25 23 22 21 20 19 18 17 17 17 17 16 16 17 17 17 18 19 19 19 20 20 20 18 18 19 18 19 20 22 24 27 27 29 28 20 14 15 15 15 14 13 14 14 14 15 16 17 17 16 16 15 15 15 15 15
21 22 22 23 24 25 24 21 19 18 17 17 16 15 15 15 15 15 15 16 16 17 18 19 18 19 20 19 18 17 17 18 19 19 20 23 26 25 27 29 26 19 15 15 15 16 16 15 16 16 16 16 18 18 18 17 16 15 15 15 15 15
20 20 22 22 22 22 20 18 17 16 16 16 16 15 15 15 15 14 15 15 16 18 18 18 18 18 17 17 17 17 17 17 20 22 22 25 27 26 30 28 19 16 16 16 17 17 17 17 17 17 18 18 19 19 19 18 17 16 15 15 15 15
17 16 18 17 18 18 17 15 15 15 16 17 15 14 14 14 14 15 15 16 17 18 18 17 18 18 18 19 21 19 18 18 19 23 24 25 25 26 32 27 17 16 17 16 17 17 18 18 17 18 18 18 19 19 19 19 18 16 15 15 15 15
13 13 14 14 17 16 13 14 15 16 16 15 14 13 14 14 15 15 15 15 16 16 16 16 17 18 19 21 22 20 19 18 18 21 22 22 19 22 28 25 19 17 16 16 17 18 18 18 18 18 17 17 18 19 19 18 18 17 16 15 14 14
12 13 15 17 18 16 12 12 14 15 14 13 13 13 13 14 14 14 15 15 15 15 15 15 16 17 18 20 20 19 18 17 17 19 20 19 15 15 19 21 20 17 16 16 17 18 19 18 18 17 17 17 18 18 18 17 16 16 15 14 13 14
11 12 14 15 15 13 13 12 13 13 13 13 13 13 14 15 14 14 14 14 14 14 14 14 14 15 16 17 17 16 16 15 15 17 17 16 15 14 16 18 18 16 16 16 17 18 18 18 18 17 17 17 17 17 15 15 15 15 14 14 14 15
11 12 11 10 11 12 12 13 14 14 15 15 16 15 16 16 15 14 13 13 13 13 12 11 11 12 13 14 15 14 14 13 12 13 14 14 14 14 15 15 15 15 15 15 16 16 17 17 18 18 17 16 15 14 14 14 14 15 14 13 14 15
7 9 9 9 11 12 11 13 14 15 15 16 16 17 16 16 15 14 12 10 9 9 9 9 8 9 10 11 12 12 11 10 10 11 12 12 12 12 12 13 12 13 13 14 15 16 16 17 17 16 15 14 13 13 14 14 14 15 14 14 14 14
6 8 9 11 10 9 9 11 13 14 15 15 16 16 15 14 14 12 10 8 7 7 7 8 7 7 7 9 10 11 10 10 10 10 10 10 11 11 11 11 11 11 12 13 14 15 16 16 15 14 13 12 12 13 14 13 14 14 15 15 15 15
9 10 11 10 8 6 6 7 10 13 14 14 14 14 14 13 13 11 9 9 9 8 8 8 8 9 9 10 11 11 10 10 10 10 9 9 10 10 11 10 10 11 12 14 14 15 15 14 13 12 11 11 11 11 12 12 12 12 13 14 14 14
9 9 10 10 10 7 7 8 10 11 12 13 13 13 13 13 13 12 11 11 11 10 10 10 11 12 12 11 12 11 10 9 9 8 8 8 9 10 10 10 10 11 13 14 14 13 13 12 11 11 10 9 9 10 10 10 9 10 10 9 10 11
8 8 9 10 12 13 13 13 14 14 14 14 14 14 13 13 14 14 14 13 12 11 11 11 12 13 13 12 11 10 10 9 8 8 8 8 9 9 10 10 11 13 14 13 12 11 11 10 10 10 9 9 9 8 8 7 7 7 7 6 7 8
8 9 9 10 12 14 15 16 16 16 16 16 16 15 14 13 13 14 14 14 12 11 10 10 12 13 13 11 10 10 9 9 9 9 10 10 10 11 11 12 13 13 13 12 11 10 10 9 10 9 8 8 8 7 6 5 5 5 5 6 7 7
9 9 10 11 12 13 14 16 17 17 18 18 17 16 15 14 13 13 13 12 11 10 10 11 12 12 12 11 10 10 10 11 11 12 12 12 12 12 12 13 13 13 12 11 10 9 9 9 9 9 8 8 7 6 5 4 4 4 4 5 6 7
10 10 11 12 13 14 14 16 17 18 19 19 17 16 16 15 14 13 12 11 11 11 12 13 13 12 12 11 11 11 12 12 13 13 13 12 12 12 12 12 12 12 12 11 10 9 9 9 9 8 8 8 8 7 6 5 5 5 5 5 5 6
10 12 13 14 14 14 15 16 18 19 19 19 17 16 16 15 14 13 13 12 12 12 14 15 14 13 12 11 11 12 12 12 12 12 12 12 11 11 11 11 12 12 12 11 11 10 10 10 9 9 8 8 8 7 7 7 6 7 7 7 6 6
9 12 15 15 15 15 16 17 18 19 19 18 17 15 15 14 14 14 14 13 13 14 15 15 15 13 12 11 11 12 12 11 11 11 11 11 11 10 10 11 11 11 11 11 11 11 11 10 10 9 9 9 8 8 8 8 8 8 8 8 8 8
9 12 15 16 16 15 15 17 18 19 19 18 16 14 14 15 15 15 15 14 14 14 14 15 14 13 13 12 12 12 11 11 11 11 10 10 10 10 10 10 11 11 11 11 11 12 11 11 10 10 10 10 10 10 10 10 9 9 9 9 9 10
10 12 14 16 16 15 16 18 18 19 19 18 16 15 15 16 17 17 16 15 14 14 14 14 14 14 14 13 13 12 11 11 10 10 10 9 9 9 9 10 10 10 11 11 12 12 11 11 11 11 11 11 11 11 11 11 11 10 10 10 10 11
12 14 16 18 18 18 19 20 20 19 19 18 17 17 18 18 19 19 17 15 15 15 14 15 15 15 14 14 13 12 11 11 10 10 10 10 10 10 10 10 10 10 11 12 12 12 12 12 12 12 13 12 12 12 12 12 12 11 11 11 11 12
14 16 18 19 19 19 20 20 20 20 20 20 20 20 19 19 19 19 17 16 17 16 16 17 17 16 15 15 14 13 12 12 12 12 11 11 11 10 11 11 11 11 11 11 12 12 13 13 12 13 13 13 12 12 12 12 12 11 11 12 12 12
14 16 17 17 17 18 19 19 20 20 21 22 21 20 19 20 19 17 18 18 18 18 18 19 18 17 17 16 15 14 14 14 13 13 13 12 12 12 12 12 12 12 11 12 12 13 13 13 13 13 13 13 12 12 11 11 11 12 12 12 12 12
13 15 15 15 15 16 17 19 20 21 22 21 20 20 20 20 18 17 19 19 19 19 19 19 19 18 17 17 16 16 15 15 14 14 14 14 14 14 14 13 13 12 12 13 13 13 13 13 13 13 13 13 13 12 11 11 11 12 12 12 11 12
13 14 15 15 16 17 18 19 20 21 23 23 22 22 22 20 18 18 19 19 20 20 20 20 19 18 17 16 15 15 14 14 14 14 14 15 15 15 15 14 13 13 13 13 14 14 14 14 13 13 13 13 12 12 12 12 12 12 12 11 11 11
14 14 15 16 18 20 19 19 20 22 25 25 25 24 24 22 20 20 20 20 20 21 21 20 19 18 16 14 13 12 12 12 13 13 14 14 15 15 14 14 13 13 13 14 15 15 15 15 14 14 13 12 12 12 12 13 13 12 12 12 11 11
13 14 14 15 17 19 20 21 22 24 25 26 28 29 26 23 22 21 21 21 22 22 21 20 18 16 14 12 11 10 10 11 12 13 13 14 14 14 14 14 14 14 14 15 15 16 16 15 15 14 13 13 13 13 13 13 14 13 13 12 12 12
13 14 13 14 16 17 18 19 19 20 21 21 25 27 24 23 22 22 22 23 23 22 21 20 18 16 13 11 11 10 10 11 11 12 13 14 15 15 15 15 15 15 15 15 15 15 15 15 15 15 14 14 14 15 15 15 15 15 14 13 13 14
13 14 13 14 16 16 14 14 14 15 15 16 19 20 20 21 22 23 23 22 22 21 21 21 19 17 15 13 13 12 12 11 12 12 13 14 15 16 16 16 15 15 15 15 15 15 15 15 15 15 16 16 16 16 16 16 16 16 16 15 15 15
13 14 14 14 15 15 14 13 12 12 12 15 17 19 21 22 22 22 21 21 21 21 21 21 20 19 18 16 15 14 13 12 12 12 12 13 14 15 16 16 15 15 15 15 15 15 15 15 16 16 17 17 17 17 18 18 18 18 17 16 16 16
16 16 16 15 15 14 12 12 12 10 11 13 16 19 20 20 20 20 19 20 20 19 19 19 20 19 17 16 15 15 14 13 12 11 11 12 13 14 15 15 15 14 13 14 14 14 15 15 16 16 17 17 17 18 18 19 19 18 18 17 17 17
18 18 16 14 13 12 12 12 11 10 11 14 15 17 19 19 20 20 19 19 18 17 18 19 18 17 16 16 15 15 14 13 12 12 12 12 13 14 15 15 14 13 12 12 12 12 13 14 14 15 16 16 17 17 18 19 19 19 18 18 18 18
18 15 12 12 12 13 14 15 14 13 14 16 17 18 19 19 20 20 19 19 18 18 18 18 17 16 15 15 15 14 14 13 12 12 13 13 13 14 15 15 14 14 13 12 12 12 12 12 13 13 14 15 16 17 18 19 19 19 19 19 19 19

ECMWFFLT2_500_spd_078.txt.gz
Wind_Speed
24 23 22 23 24 23 22 22 21 19 18 18 18 18 17 16 16 16 16 15 15 15 14 15 15 15 15 16 15 14 14 14 14 14 13 13 13 15 17 17 17 18 18 17 16 15 14 13 10 8 9 9 9 10 9 10 10 10 10 10 10 10
21 21 22 23 23 22 22 21 20 19 19 19 19 18 17 16 16 16 16 14 14 14 13 15 15 15 15 16 17 16 16 15 15 15 14 14 14 15 18 19 20 20 19 18 18 18 16 15 12 9 9 9 10 12 11 11 12 12 11 11 11 11
21 22 23 23 23 22 22 21 19 19 19 19 19 18 18 17 17 16 15 13 13 14 13 15 16 15 16 17 17 17 17 16 16 16 13 14 15 16 17 20 22 21 20 19 20 21 19 18 15 10 9 9 10 12 13 12 14 14 14 13 12 12
21 22 23 24 23 23 21 20 20 20 19 19 19 19 18 18 17 16 15 13 13 13 13 15 16 16 16 17 17 18 18 17 16 15 14 15 16 16 18 20 23 23 21 21 22 24 24 21 18 14 11 10 10 12 13 13 16 16 16 16 14 14
21 22 23 22 21 21 21 20 19 18 18 19 19 19 19 18 17 15 14 13 13 13 13 14 15 16 16 16 17 17 18 17 16 15 15 18 18 17 18 20 23 24 23 23 24 26 27 24 18 17 15 13 13 13 13 14 16 17 18 18 16 15
22 22 22 21 22 23 22 20 18 17 18 19 20 21 20 19 18 16 14 13 13 13 13 14 14 14 15 15 16 17 17 17 16 16 17 19 19 17 18 20 22 25 25 24 26 28 29 25 17 16 17 15 14 14 14 14 16 17 19 19 17 16
23 22 22 24 25 25 22 19 18 17 19 19 20 20 20 19 18 16 14 14 13 13 13 13 13 13 14 16 16 17 17 18 18 18 18 19 19 17 19 22 22 25 26 24 26 26 28 28 19 15 16 14 15 15 15 15 16 18 19 18 17 17
25 25 26 27 25 23 20 18 16 16 17 18 19 19 19 18 17 15 14 14 13 12 13 13 13 14 15 16 16 17 18 18 18 18 17 17 17 17 18 21 23 24 24 23 25 24 25 27 22 17 16 16 16 15 15 16 17 18 18 17 17 17
24 24 24 23 21 20 18 15 14 14 14 14 14 15 17 16 15 14 14 13 12 12 13 13 13 14 16 16 16 17 18 18 18 17 16 16 17 18 19 20 23 24 23 23 23 23 24 23 20 18 17 17 16 15 15 16 17 18 17 17 17 18
21 19 19 20 19 18 16 14 13 13 13 12 10 11 15 14 13 14 14 12 12 12 12 13 14 16 16 17 16 17 18 19 19 18 17 18 19 20 20 20 23 24 24 25 25 25 25 21 18 18 18 17 16 15 16 16 17 18 18 17 17 17
23 17 18 20 20 17 15 14 13 13 13 12 10 10 14 14 13 13 13 12 12 12 13 14 15 16 16 17 17 18 18 19 20 20 20 21 21 20 19 19 21 23 23 24 25 23 22 22 19 17 17 16 15 15 15 17 18 17 18 16 16 18
20 18 19 20 20 17 15 13 11 11 12 12 10 11 13 14 14 14 13 12 12 13 13 14 15 15 15 16 17 17 17 18 19 20 21 21 21 19 18 19 20 21 19 18 18 18 18 20 17 15 16 15 14 15 15 17 17 16 16 15 15 18
17 19 19 19 19 18 16 12 10 10 10 10 10 11 13 14 15 14 13 13 13 13 12 13 13 13 14 14 15 15 16 17 17 18 19 19 19 18 19 20 21 20 18 15 14 15 15 15 14 15 15 14 14 15 16 17 16 15 15 15 15 17
14 18 18 17 18 18 17 13 10 10 10 11 10 11 12 14 14 14 13 12 11 11 11 11 11 11 12 12 13 13 14 15 15 15 16 16 17 18 19 20 22 21 19 15 12 11 12 13 14 15 14 14 15 15 16 15 14 15 14 15 15 16
9 12 13 13 14 15 15 12 10 10 11 12 11 11 12 12 12 12 11 10 10 10 10 10 10 10 10 11 12 12 13 13 13 13 13 13 14 14 14 15 16 16 14 12 12 11 12 14 14 13 13 14 14 14 14 13 13 14 14 15 15 16
12 12 12 12 14 15 15 12 11 10 11 11 11 10 10 10 11 12 11 10 10 10 11 11 11 11 11 11 12 12 12 11 11 10 10 10 11 10 9 10 10 12 13 13 14 14 14 13 13 13 14 14 13 13 12 12 14 14 13 14 14 14
15 17 17 18 19 18 16 14 13 12 12 11 11 10 10 11 13 14 14 12 12 12 13 12 12 13 13 12 12 12 12 12 10 10 10 10 10 9 9 10 10 12 13 14 14 13 13 13 13 13 13 12 12 11 10 10 13 13 12 13 12 11
13 16 20 21 19 19 18 17 16 15 14 14 14 13 13 14 15 16 16 15 14 14 14 14 14 15 14 13 13 13 13 13 12 11 11 11 10 10 11 11 11 12 13 13 12 12 13 13 13 13 12 11 10 10 10 9 12 11 9 10 10 9
13 16 18 17 16 17 17 18 17 17 16 16 16 16 16 17 17 17 16 15 14 14 15 15 15 15 15 14 14 14 14 14 13 12 11 11 11 11 11 12 12 13 13 12 12 12 13 13 13 12 11 10 10 10 9 9 10 10 8 8 8 8
15 16 16 14 14 15 16 17 17 17 17 17 17 17 18 18 18 17 15 14 14 14 15 15 15 15 15 14 14 14 14 14 13 12 12 12 12 12 12 12 13 13 13 13 13 13 13 13 12 11 10 10 9 9 8 8 9 9 8 8 7 7
16 16 15 15 15 16 17 17 17 17 18 18 19 19 19 19 18 16 14 14 13 14 15 15 15 14 13 13 14 14 14 14 14 13 13 12 12 13 13 14 14 14 13 13 13 13 12 12 12 11 11 10 9 8 8 8 9 9 8 7 7 7
16 16 15 15 16 17 18 18 18 20 21 21 21 21 20 20 19 17 15 14 13 13 15 15 14 13 13 13 13 14 14 14 14 14 14 14 14 15 15 15 15 14 14 13 13 12 12 12 12 12 11 10 9 8 8 8 9 9 7 6 7 8
17 17 16 16 17 18 19 20 21 22 23 23 22 22 22 21 20 18 16 14 12 13 14 14 14 13 13 14 14 14 14 14 14 15 15 15 16 16 16 15 15 14 13 13 12 11 12 12 13 12 11 11 9 8 9 9 9 9 7 7 7 8
18 18 18 18 19 20 21 22 23 23 23 23 23 23 23 22 20 17 15 13 13 14 14 14 14 14 15 15 15 15 15 15 15 15 16 16 16 16 15 14 14 13 13 12 12 11 12 13 13 13 12 11 10 10 10 9 9 9 8 8 9 9
20 20 20 20 20 21 23 24 24 24 24 25 25 24 23 21 19 17 15 13 13 14 15 16 16 16 17 17 18 18 18 17 16 16 16 16 15 15 14 13 13 13 12 12 12 12 12 13 13 13 12 12 11 11 11 10 10 10 10 11 10 10
22 23 24 25 25 25 24 24 23 24 25 26 26 24 22 20 18 16 15 14 14 15 16 17 17 18 19 20 20 21 20 19 17 16 15 15 15 14 13 13 13 12 12 12 12 12 12 13 14 13 13 13 12 12 11 11 11 12 12 12 11 12
23 25 27 29 28 24 23 23 23 24 25 26 26 23 21 19 18 16 15 15 15 16 18 18 19 19 20 21 21 22 21 20 18 17 15 14 14 14 13 13 12 12 12 12 12 12 12 13 13 13 14 14 14 13 13 12 12 13 13 13 13 13
24 26 28 28 24 20 20 23 25 26 26 26 25 23 21 20 18 16 15 15 16 17 19 19 20 20 20 21 21 21 20 19 17 16 15 14 15 15 14 13 13 12 12 12 12 12 12 13 13 14 14 14 14 14 14 13 14 14 14 15 15 15
25 26 28 26 21 20 23 25 26 27 26 26 25 23 22 20 18 17 17 16 17 19 20 21 21 21 21 21 21 20 19 17 16 15 14 15 15 15 15 14 14 14 14 13 13 13 13 13 13 13 14 14 14 14 14 14 15 15 15 15 16 16
27 27 27 23 22 23 24 24 24 25 25 24 23 22 21 20 18 18 18 17 19 21 21 21 21 22 22 21 20 19 17 16 15 14 15 15 15 16 15 15 15 15 15 14 14 14 14 14 14 13 13 14 14 14 14 14 15 15 15 16 16 16
27 26 23 19 20 22 21 21 22 22 22 22 21 20 19 19 18 18 19 20 21 22 22 22 22 23 22 20 19 18 17 16 15 15 15 15 15 15 15 15 15 15 14 14 14 14 15 14 14 14 14 14 15 15 15 14 15 15 15 15 15 15
22 21 18 15 19 21 20 22 23 22 21 21 21 19 18 18 18 19 19 21 22 23 23 22 22 22 21 19 18 17 16 16 16 15 15 15 14 14 14 15 15 14 14 14 14 14 15 15 15 15 15 15 15 15 15 14 14 15 15 14 14 15
19 20 18 16 18 20 19 21 21 21 20 20 20 19 18 19 20 22 23 23 24 25 24 23 23 22 20 19 18 17 17 16 15 15 14 13 13 12 13 13 14 14 14 15 15 15 16 16 16 16 15 15 15 15 15 14 14 14 14 14 14 15
20 21 20 18 17 17 18 18 19 19 19 19 20 20 19 21 23 25 27 27 27 27 25 23 22 21 19 19 18 17 17 16 15 14 13 12 12 12 13 13 14 15 15 16 16 16 17 17 17 16 15 15 15 15 14 14 14 14 15 15 15 15
20 20 20 18 16 16 17 17 17 17 17 17 18 18 20 22 23 24 29 33 32 28 25 22 21 20 20 19 19 18 17 16 15 14 14 14 14 14 14 14 15 16 16 17 18 18 18 18 17 16 16 15 15 15 14 14 15 15 16 16 16 16
19 19 17 15 15 15 17 18 17 14 14 13 12 13 16 20 22 24 29 34 32 25 22 21 20 20 20 19 19 18 18 17 16 17 17 18 18 17 16 16 16 17 18 18 19 19 19 18 18 17 16 15 15 14 14 15 15 16 16 16 16 16
19 19 17 14 12 13 15 18 18 15 14 14 13 12 12 14 17 19 24 28 27 22 19 20 20 19 19 19 20 20 20 19 19 20 20 20 20 19 18 17 17 17 18 18 18 18 18 18 17 17 16 15 14 14 14 14 14 15 15 16 16 16

ECMWFFLT2_500_spd_084.txt.gz
Wind_Speed
24 25 27 28 31 32 32 33 32 28 25 24 25 25 25 24 25 24 23 22 22 21 21 20 19 18 16 15 15 16 16 17 16 15 14 14 15 14 15 15 14 14 12 11 11 12 13 12 12 12 11 9 7 7 5 5 6 6 5 6 7 7
25 26 26 28 31 32 31 29 30 28 25 23 24 25 25 25 25 24 23 22 22 21 21 20 19 18 15 15 15 15 16 17 16 15 15 15 15 15 15 15 14 14 12 11 11 12 13 14 14 14 13 10 8 9 7 5 7 8 7 7 8 8
29 28 25 27 31 33 32 27 25 26 25 22 23 25 26 26 25 25 24 22 22 21 21 20 18 16 15 15 15 15 16 17 17 16 16 16 15 15 15 15 15 14 14 13 13 14 14 15 16 16 15 13 10 11 9 6 8 10 10 10 10 10
32 30 27 29 31 32 33 28 23 22 22 19 21 24 25 26 25 25 23 21 21 21 21 19 16 16 15 14 14 14 15 17 17 16 16 16 16 15 15 15 15 14 15 15 15 16 15 16 17 17 16 15 13 13 12 9 9 11 12 12 11 10
33 32 29 30 30 30 30 28 25 22 19 17 21 24 24 24 25 24 22 21 21 21 20 18 16 15 14 13 13 13 14 15 16 16 15 16 16 16 15 15 14 14 15 15 16 17 17 16 17 17 17 17 17 16 14 13 12 13 14 13 11 11
33 34 31 31 28 27 29 27 25 24 19 19 21 23 24 24 24 23 21 21 22 21 19 17 16 14 13 12 12 12 12 13 14 15 15 15 16 15 15 14 13 14 15 16 16 17 16 14 15 17 18 18 18 18 16 15 14 13 14 13 12 13
32 33 32 31 27 26 28 25 24 24 22 21 22 23 24 23 23 22 22 22 22 21 18 17 15 13 12 11 11 12 12 12 13 14 15 15 15 15 15 15 14 15 16 18 18 17 15 14 15 16 18 19 18 19 19 17 14 12 13 14 13 13
31 31 30 28 25 25 25 23 24 26 25 23 23 24 24 22 21 22 22 22 21 20 18 15 14 13 11 11 11 12 11 12 12 13 15 15 15 15 16 16 16 16 17 19 19 17 16 16 18 19 19 19 17 18 21 18 15 13 14 14 14 13
31 30 27 22 19 21 21 19 22 26 26 24 23 23 22 20 20 21 21 21 20 18 15 13 12 12 11 10 10 10 11 11 12 13 14 15 15 15 16 17 17 17 17 18 17 16 17 17 19 21 18 18 18 19 20 18 15 14 16 16 13 13
30 29 28 23 19 21 20 18 22 25 25 24 21 20 19 19 20 20 19 17 15 14 13 12 12 10 10 9 9 10 11 12 13 13 13 14 14 15 15 16 17 17 17 17 16 16 17 16 18 19 14 16 21 20 20 19 15 13 16 14 11 12
24 23 24 22 19 20 21 23 25 22 22 22 18 16 16 17 18 17 14 11 10 11 11 11 11 9 9 9 9 10 12 13 12 12 12 13 14 14 15 16 16 17 17 17 16 16 17 16 17 17 13 15 19 18 20 18 14 13 14 12 11 13
16 15 14 12 13 16 21 24 23 19 20 20 17 15 14 14 14 13 11 9 9 10 11 11 10 9 9 10 11 12 12 11 11 10 10 11 12 13 15 16 17 17 18 18 17 18 18 17 18 16 14 14 14 16 18 16 13 12 13 13 15 15
14 13 9 7 12 17 22 23 20 17 18 18 16 14 13 13 13 11 10 9 10 11 12 12 10 8 9 11 12 11 10 10 9 8 8 9 11 11 13 14 16 16 17 18 18 18 17 17 18 16 14 14 13 14 14 13 13 13 13 14 14 14
16 13 11 12 16 16 20 20 18 17 16 16 14 12 12 13 13 11 10 10 10 11 11 11 8 7 9 10 11 10 9 8 7 7 7 8 9 9 10 11 13 14 14 15 16 16 15 16 16 14 16 15 12 12 11 11 13 13 13 12 11 12
10 10 14 17 16 13 13 15 16 15 14 13 13 13 14 14 12 10 10 10 10 11 10 9 8 9 9 9 10 9 9 9 7 7 7 7 7 7 8 8 9 10 11 12 13 14 14 14 13 14 16 12 8 9 11 11 12 11 10 10 10 10
6 7 9 11 11 12 12 13 15 15 13 13 14 15 15 14 11 10 11 11 10 10 10 9 10 10 10 10 11 11 11 9 7 7 7 6 6 5 5 6 6 8 10 11 12 13 12 9 11 15 14 9 8 9 10 12 12 11 10 8 8 9
7 6 7 9 9 11 13 15 17 14 12 14 15 15 15 13 11 11 11 10 10 11 11 11 11 11 11 12 12 11 9 8 7 8 7 6 5 4 4 4 5 6 7 8 8 8 7 5 9 13 9 6 10 10 9 10 11 11 9 7 7 7
7 5 7 10 11 11 12 16 18 15 13 15 14 14 15 14 13 12 11 11 11 12 13 12 13 13 13 12 12 11 8 7 9 9 8 6 5 5 4 4 4 4 5 5 4 5 6 6 9 10 7 6 8 8 9 9 9 8 7 6 7 6
8 7 9 12 14 14 14 17 18 17 16 17 15 15 17 17 15 13 12 13 14 14 14 14 14 13 13 12 12 12 9 7 8 7 7 6 5 5 5 5 4 5 6 6 6 7 8 9 9 9 8 8 7 8 9 8 7 6 5 6 7 7
10 10 14 17 18 18 18 18 19 20 18 18 17 17 19 19 17 15 14 15 16 16 15 15 14 12 13 12 11 10 9 6 6 7 7 6 5 5 5 5 6 7 6 6 8 9 9 9 9 8 10 11 10 9 8 7 7 6 5 6 6 6
16 16 19 21 23 24 23 21 21 20 18 18 20 20 20 20 17 16 16 17 18 16 15 15 13 11 11 11 9 7 7 6 7 7 7 6 5 5 6 5 6 7 5 6 8 9 9 9 9 9 10 11 10 9 8 7 7 7 6 5 5 5
21 21 23 24 26 27 26 23 20 17 18 21 22 23 22 20 18 16 16 17 18 16 14 14 13 11 10 9 9 7 7 8 7 7 6 6 6 6 6 6 5 5 5 7 8 9 11 10 10 11 11 10 8 8 8 7 5 6 6 4 4 5
20 21 21 21 22 26 26 22 19 20 22 23 23 22 19 18 17 16 16 17 17 16 14 13 13 12 11 10 9 8 10 9 6 6 6 6 6 7 7 6 6 6 6 9 10 11 13 12 12 12 10 9 9 8 8 7 5 5 5 4 4 5
15 16 16 14 15 21 23 22 22 25 24 21 21 20 18 17 17 16 17 18 16 15 13 13 13 12 11 11 10 9 9 8 6 6 6 6 7 8 8 8 8 8 9 10 11 12 14 13 12 11 10 9 9 8 8 7 6 6 5 6 6 5
13 12 11 11 14 19 21 21 22 24 24 22 20 20 20 20 20 18 18 19 17 15 14 14 13 12 11 11 10 9 8 8 7 7 7 8 9 9 9 9 9 10 10 10 11 12 12 12 11 10 9 9 9 9 8 8 8 7 7 7 7 6
17 15 14 13 17 19 19 20 20 23 24 23 21 22 22 23 22 20 19 20 20 18 16 15 15 14 13 12 10 9 10 10 9 8 8 9 10 10 10 10 11 11 10 10 11 11 10 10 10 10 9 9 10 9 9 9 9 8 8 9 8 7
20 18 18 18 20 20 19 19 20 22 22 22 22 23 24 24 22 20 20 21 20 18 17 16 17 14 13 12 11 11 12 10 9 9 10 11 11 12 11 11 12 11 11 10 10 10 10 9 9 10 10 10 10 10 9 9 9 9 9 9 8 9
21 19 20 19 20 21 20 19 19 20 21 21 22 23 24 23 21 19 19 21 19 18 16 16 16 14 12 12 12 12 11 10 10 10 11 11 12 12 12 12 12 11 10 9 9 9 9 9 9 9 9 9 10 10 10 10 10 10 11 11 10 10
23 22 21 20 21 22 21 21 20 21 22 23 23 22 22 21 20 19 19 19 19 17 14 14 15 14 13 12 13 12 11 10 10 10 11 10 11 11 12 12 11 9 9 8 9 9 8 8 9 9 9 9 9 10 11 11 11 11 11 11 10 10
24 22 18 15 17 20 21 21 20 20 22 23 22 21 21 22 21 21 21 20 18 16 14 14 14 13 12 13 13 13 12 10 11 11 11 9 10 11 11 11 10 8 9 8 8 9 8 8 9 9 9 10 10 10 11 11 11 12 11 11 10 10
21 21 22 18 14 16 17 17 16 16 19 21 21 21 22 23 23 22 22 20 19 18 16 16 15 14 14 15 14 13 12 11 11 11 10 9 9 10 10 10 9 9 9 8 9 9 9 9 10 10 11 11 12 12 12 11 12 12 12 11 11 10
18 19 25 25 20 18 18 16 15 14 15 16 18 20 21 22 23 22 22 21 21 20 18 17 17 16 16 17 15 13 11 11 10 10 9 8 8 9 9 9 9 10 10 9 9 10 10 10 11 11 12 12 13 13 13 13 13 13 13 13 12 12
16 17 22 22 20 20 19 18 17 16 14 13 15 18 20 21 22 23 22 22 23 21 19 18 17 17 17 17 14 13 11 11 10 9 8 8 8 9 9 9 9 10 10 10 10 10 10 10 11 11 12 12 13 13 14 14 13 13 14 14 14 13
14 17 19 18 18 18 18 18 17 17 16 15 16 18 19 20 22 23 22 22 23 22 20 19 19 18 18 16 14 12 11 11 10 9 9 9 9 9 9 9 9 9 9 9 9 8 9 9 9 10 11 11 12 12 13 14 14 14 15 14 14 14
15 17 17 17 17 18 17 18 18 18 17 17 18 18 19 19 21 22 22 23 23 21 19 19 20 19 17 15 13 12 12 11 10 10 10 10 9 9 8 9 9 9 8 8 8 8 9 9 10 10 11 11 11 12 14 14 14 15 14 14 14 14
18 17 17 17 18 19 19 19 19 20 18 18 19 20 20 19 20 20 21 23 22 20 19 20 20 19 16 14 13 13 13 13 12 12 11 11 10 9 9 9 10 10 9 9 10 11 12 12 12 13 13 13 12 13 15 15 14 15 15 15 15 15
19 18 18 18 19 20 20 21 22 21 19 19 20 22 22 20 19 19 20 21 21 19 19 20 20 19 16 15 15 15 14 14 14 13 13 12 11 11 11 11 11 11 12 12 13 14 14 14 15 15 15 14 14 14 15 15 15 15 15 16 15 15

ECMWFFLT2_500_spd_087.txt.gz
Wind_Speed
22 22 23 23 22 21 21 24 26 26 26 26 29 33 33 31 28 26 24 22 19 17 15 14 15 17 18 18 18 18 18 17 15 13 13 13 12 12 12 12 11 10 10 10 8 8 7 8 10 10 9 4 1 1 4 5 3 2 2 3 5 5
23 24 25 25 24 23 23 25 28 28 27 25 26 29 30 30 28 26 24 21 18 16 14 15 16 17 18 18 17 17 18 17 15 13 13 13 12 12 12 12 11 11 11 11 10 9 7 8 9 12 12 7 2 3 6 8 5 4 4 5 5 6
27 27 26 26 26 25 25 26 29 29 26 22 23 25 26 28 28 25 22 20 17 15 15 15 16 17 18 17 16 16 18 18 15 14 13 13 13 13 13 13 12 12 12 12 11 11 10 9 9 12 14 9 4 4 8 11 8 6 7 8 8 7
30 29 26 25 27 27 27 28 29 28 23 19 20 21 21 25 26 23 20 18 17 16 15 15 16 17 18 17 17 17 17 17 15 13 13 13 13 13 13 13 14 14 13 13 12 12 13 12 11 13 13 9 7 6 8 12 11 9 9 10 10 9
31 30 27 25 26 28 28 29 29 27 22 18 18 18 17 21 22 20 19 18 18 17 16 16 17 17 17 17 16 16 15 15 15 13 12 13 13 14 14 14 14 14 13 13 12 12 12 13 12 11 10 8 9 10 11 13 13 11 12 13 12 10
31 30 28 26 27 29 29 28 28 26 22 19 19 17 16 18 19 19 19 18 18 17 17 17 17 17 17 16 16 15 14 14 13 12 12 13 13 14 14 15 15 14 13 12 13 13 14 14 11 9 10 9 10 12 13 15 15 13 14 14 13 12
31 30 28 27 27 28 28 28 27 25 21 18 19 19 17 17 17 17 18 18 18 18 18 18 17 17 16 16 15 14 13 13 12 12 13 13 14 14 15 15 15 14 13 13 14 15 16 16 11 11 12 11 11 13 13 15 16 15 14 14 12 12
29 27 26 25 25 26 26 26 24 20 17 17 17 18 17 17 18 18 18 18 18 19 18 18 17 17 16 15 14 13 13 12 12 13 14 14 14 14 15 16 16 15 14 14 14 16 17 15 10 11 13 14 15 15 14 14 14 13 13 13 13 12
25 23 22 21 20 22 22 22 19 15 16 17 16 17 17 17 17 19 20 19 19 19 19 19 18 17 15 14 14 13 12 11 12 14 14 14 14 14 15 16 16 15 13 14 15 15 15 12 10 11 15 17 16 15 15 14 13 13 12 12 13 13
22 19 18 18 17 16 18 19 18 15 16 16 15 16 18 17 18 19 19 19 19 19 18 18 17 15 14 13 13 13 12 12 13 14 15 14 13 13 14 15 14 14 14 15 15 14 12 10 11 13 17 18 15 13 12 10 13 14 12 11 11 9
20 16 16 17 12 10 12 15 16 17 16 15 14 15 17 17 17 17 17 18 17 14 13 13 14 14 13 13 12 12 11 12 13 13 13 13 12 12 13 14 14 14 13 14 15 14 11 10 11 13 15 16 14 12 9 7 10 12 11 10 8 7
18 17 17 15 8 4 7 10 13 16 18 17 15 14 15 15 14 14 14 14 13 11 10 11 13 13 13 12 11 11 12 12 12 11 10 10 9 11 11 13 14 13 12 13 15 13 10 10 11 13 14 14 14 12 9 8 9 10 10 8 8 9
15 15 15 13 10 8 7 8 11 17 19 18 17 15 15 13 13 13 12 12 10 9 10 11 12 11 11 11 11 11 12 11 10 9 7 6 7 9 11 12 13 13 12 14 15 12 10 10 11 12 12 12 12 11 10 8 8 9 8 8 8 8
13 12 11 14 14 14 11 8 9 14 17 17 16 16 15 13 13 12 12 11 10 10 10 12 12 11 10 10 10 10 10 10 8 6 5 4 6 8 10 11 12 12 13 14 13 10 9 8 8 9 10 10 10 9 8 6 5 5 5 6 7 7
13 11 12 16 16 17 16 10 6 8 11 14 15 16 14 13 12 11 11 11 11 11 11 11 11 11 11 10 9 8 8 7 6 5 5 5 6 6 8 9 10 11 11 9 8 7 7 7 8 8 9 11 9 5 4 4 4 3 3 4 5 6
12 10 13 16 16 16 17 12 7 6 9 12 14 14 13 12 12 12 11 11 11 10 9 9 10 11 11 9 7 6 6 5 6 6 5 6 6 6 7 7 8 8 6 5 6 7 9 8 8 9 8 8 6 3 3 3 4 4 2 3 4 4
12 11 14 17 14 14 16 14 10 10 11 14 14 14 13 12 13 13 11 10 10 9 8 9 10 11 10 8 7 5 6 7 7 7 5 6 7 7 7 7 7 7 4 6 7 8 8 5 5 6 4 3 4 4 4 4 4 3 1 2 2 2
13 13 17 19 15 14 16 16 13 13 13 14 14 12 12 13 14 13 11 10 11 9 9 10 10 10 9 8 7 6 7 9 8 8 7 7 7 7 7 7 8 5 5 8 7 7 7 5 4 5 3 1 1 2 3 3 3 1 1 1 1 2
15 16 19 19 17 16 17 17 15 15 15 14 13 12 11 12 13 12 11 11 11 10 9 10 9 9 9 8 8 7 8 10 9 9 7 7 8 8 8 9 8 5 7 8 7 7 7 7 6 6 4 3 2 3 3 2 2 1 1 1 1 2
15 17 17 16 16 16 16 18 16 16 16 13 12 13 12 13 13 13 13 12 12 10 10 10 10 10 9 8 9 8 9 10 10 8 7 7 8 8 9 9 8 7 8 8 8 8 8 8 7 6 5 5 5 5 4 2 1 2 2 2 1 1
13 16 17 16 16 15 14 17 15 14 16 14 12 13 14 14 13 14 14 13 13 12 12 12 11 10 9 9 9 8 8 9 9 7 7 8 9 9 9 8 7 7 6 7 8 9 8 8 7 6 7 6 5 5 4 3 2 3 3 2 2 2
13 16 18 16 17 17 16 16 12 10 10 12 12 12 15 18 16 15 14 13 13 13 13 12 11 10 9 8 8 7 8 9 7 8 9 9 10 10 9 8 7 6 6 7 9 8 7 8 8 8 8 8 6 4 3 3 3 4 3 2 2 2
14 15 15 13 13 15 16 17 18 16 10 6 8 10 13 16 16 15 14 13 13 12 11 10 10 10 8 8 8 8 9 8 8 9 9 9 10 10 9 8 7 6 7 8 9 8 8 9 9 9 9 8 6 5 5 4 4 4 4 3 3 3
11 12 13 14 14 14 15 17 20 22 20 14 11 10 10 10 11 13 13 11 11 10 9 9 9 9 9 9 8 9 9 9 9 9 10 9 10 10 9 8 8 8 9 9 9 9 9 10 11 11 10 8 7 7 6 6 5 5 5 5 4 4
10 11 12 15 15 16 17 19 19 21 24 23 21 19 16 14 12 12 12 10 9 9 9 9 9 9 9 8 8 10 10 10 10 11 11 10 9 9 9 10 9 9 10 10 9 9 8 10 11 11 10 8 8 8 7 7 7 6 6 6 5 5
15 15 16 16 16 17 18 19 19 18 20 22 24 23 21 20 18 16 14 12 10 10 10 10 10 10 9 9 10 11 11 12 12 12 12 11 9 8 8 9 9 8 9 9 8 7 8 9 10 10 10 9 8 8 7 7 8 7 7 6 6 5
17 17 18 19 18 17 19 20 19 17 17 19 21 21 20 20 20 20 18 15 13 12 11 11 11 10 11 12 13 13 13 13 14 13 12 11 10 9 9 9 8 8 8 8 7 7 7 9 9 10 10 9 8 8 8 8 8 8 7 7 7 6
16 17 17 18 18 18 18 19 20 19 19 18 18 18 18 18 20 20 19 16 14 13 12 11 10 10 12 14 14 14 14 15 14 12 10 10 10 9 9 9 8 9 9 8 7 7 8 9 9 9 9 8 8 8 8 8 9 8 8 8 8 7
17 19 18 18 18 19 20 21 22 22 21 19 18 17 17 18 19 19 18 16 14 12 12 11 10 10 11 14 15 16 15 15 14 12 11 11 10 9 9 9 8 9 10 9 7 7 8 9 8 8 8 7 7 8 8 8 9 9 9 9 8 8
20 21 19 18 18 20 21 20 21 22 21 19 19 18 18 18 18 18 17 15 14 13 12 11 10 10 10 12 15 16 15 15 13 12 12 11 10 9 9 9 8 9 10 9 8 8 8 8 8 8 7 7 7 7 8 8 8 8 8 8 8 8
22 22 20 18 18 20 19 15 15 17 17 17 18 20 20 19 18 17 16 15 14 13 12 12 12 11 11 11 12 13 14 13 12 11 11 10 10 9 8 8 9 9 10 10 9 8 8 8 8 8 8 8 7 7 8 8 8 8 8 8 7 8
22 20 18 17 17 19 20 17 15 15 15 15 16 18 19 19 17 16 16 16 15 13 13 13 13 13 13 13 13 13 12 12 10 10 10 10 9 8 8 8 8 9 10 10 9 8 8 8 8 9 8 8 8 9 9 9 9 9 9 9 8 9
20 18 16 16 15 16 20 23 21 19 19 19 17 16 17 16 15 15 16 16 15 14 14 14 15 15 14 15 16 14 13 13 11 10 10 10 9 8 8 8 9 9 9 9 9 8 8 9 9 8 8 8 9 10 10 9 9 9 9 9 9 10
17 18 16 16 16 16 19 23 23 22 21 22 20 17 16 15 13 13 15 16 15 15 15 16 16 16 15 16 17 15 14 14 12 10 9 9 9 9 9 9 9 9 8 8 8 8 8 8 7 7 7 8 8 9 9 9 9 9 10 10 10 10
17 18 17 18 18 18 19 20 21 21 20 21 21 19 16 15 12 12 14 15 15 15 16 16 16 16 16 17 17 16 16 15 12 10 9 10 10 11 10 10 9 8 7 8 7 6 6 5 5 6 6 7 8 9 9 9 9 10 10 11 10 10
20 20 19 20 20 20 20 18 20 20 18 18 19 18 17 15 13 12 13 14 15 15 16 17 16 17 17 17 17 17 16 14 11 10 9 10 12 12 11 11 9 9 8 8 7 6 5 5 5 6 7 7 8 9 10 10 10 10 11 11 10 10
23 24 23 23 22 22 22 21 21 21 19 17 17 17 17 15 13 12 13 13 13 14 15 17 18 18 18 17 16 16 15 13 11 11 10 11 13 12 12 12 10 10 9 8 7 7 7 6 6 6 8 8 9 9 9 10 10 10 11 10 10 11